Weather History for Pittsfield, MA

Change the Weather History Date:

Friday, October 4, 2013

  Actual Average Record
Temperature  
Mean Temperature 58 °F 51 °F  
Max Temperature 64 °F 62 °F 78 °F (1959)
Min Temperature 51 °F 41 °F 23 °F (1945)
Degree Days  
Heating Degree Days 7 14  
Month to date heating degree days 26 53  
Since 1 July heating degree days 335 345  
Cooling Degree Days 0 0  
Month to date cooling degree days 0 0  
Year to date cooling degree days 433 289  
Growing Degree Days 7 (Base 50)    
Moisture  
Dew Point 56 °F    
Average Humidity 89    
Maximum Humidity 100    
Minimum Humidity 78    
Precipitation  
Precipitation 0.27 in 0.17 in 2.46 in (1927)
Month to date precipitation 0.27 0.71  
Year to date precipitation 32.06 34.45  
Sea Level Pressure  
Sea Level Pressure 30.04 in    
Wind  
Wind Speed 1 mph (NE)    
Max Wind Speed 9 mph    
Max Gust Speed 15 mph    
Visibility 8 miles    
Events Fog , Rain , Thunderstorm    
T = Trace of Precipitation, MM = Missing Value Source: NWS Daily Summary

Daily Weather History Graph

Daily Weather History Graph

Search for Another Location

Airport:

Trip Planner

Search our weather history database for the weather conditions in past years. The results will help you decide how hot, cold, wet, or windy it might be!

Date:

Astronomy

Oct. 04, 2013 Rise Set
Actual Time 6:53 AM EDT 6:29 PM EDT
Civil Twilight 6:25 AM EDT 6:57 PM EDT
Nautical Twilight 5:53 AM EDT 7:29 PM EDT
Astronomical Twilight 5:20 AM EDT 8:02 PM EDT
Moon 6:26 AM EDT (10/4) 6:09 PM EDT (10/4)
Length of Visible Light 12h 31m
Length of Day
11h 35m
Waning Crescent, 0% of the Moon is Illuminated
Oct 4
Waning Crescent
Oct 4
New
Oct 11
First Quarter
Oct 18
Full
Oct 26
Last Quarter

Hourly Weather History & Observations

Time (EDT) Temp. Dew Point Humidity Pressure Visibility Wind Dir Wind Speed Gust Speed Precip Events Conditions
12:54 AM 50.0 °F 48.9 °F 96% 30.05 in 10.0 mi Calm Calm - N/A   Scattered Clouds
1:54 AM 53.1 °F 51.1 °F 93% 30.04 in 10.0 mi Calm Calm - N/A   Overcast
2:54 AM 53.1 °F 51.1 °F 93% 30.02 in 10.0 mi Calm Calm - N/A   Partly Cloudy
3:54 AM 53.1 °F 51.1 °F 93% 30.02 in 10.0 mi Calm Calm - N/A   Overcast
4:54 AM 52.0 °F 50.0 °F 93% 30.01 in 10.0 mi Calm Calm - N/A   Mostly Cloudy
5:54 AM 53.1 °F 50.0 °F 89% 30.02 in 10.0 mi Calm Calm - N/A   Mostly Cloudy
6:54 AM 52.0 °F 51.1 °F 97% 30.03 in 10.0 mi Calm Calm - N/A   Overcast
7:54 AM 55.0 °F 51.1 °F 86% 30.03 in 10.0 mi Calm Calm - N/A   Overcast
8:50 AM 55.4 °F 51.8 °F 88% 30.08 in 10.0 mi Calm Calm - 0.00 in   Overcast
8:54 AM 55.9 °F 52.0 °F 87% 30.04 in 10.0 mi Calm Calm - 0.00 in   Overcast
9:23 AM 55.4 °F 51.8 °F 88% 30.07 in 1.5 mi Calm Calm - 0.06 in Rain Light Rain
9:32 AM 55.4 °F 53.6 °F 94% 30.07 in 3.0 mi Calm Calm - 0.06 in Rain Light Rain
9:54 AM 57.0 °F 54.0 °F 89% 30.04 in 10.0 mi Calm Calm - 0.06 in   Overcast
10:54 AM 57.9 °F 55.0 °F 90% 30.06 in 3.0 mi NNW 4.6 mph - 0.02 in Rain , Thunderstorm Light Thunderstorms and Rain
10:56 AM 57.2 °F 55.4 °F 94% 30.09 in 1.5 mi North 4.6 mph - 0.05 in Rain , Thunderstorm Light Thunderstorms and Rain
11:05 AM 57.2 °F 55.4 °F 94% 30.08 in 0.5 mi Calm Calm - 0.16 in Fog , Rain , Thunderstorm Heavy Thunderstorms and Rain
11:11 AM 57.2 °F 55.4 °F 94% 30.07 in 1.0 mi ESE 3.5 mph - 0.17 in Rain Light Rain
11:15 AM 57.2 °F 57.2 °F 100% 30.07 in 3.0 mi East 3.5 mph - 0.17 in Rain Light Rain
11:22 AM 57.2 °F 55.4 °F 94% 30.07 in 3.0 mi East 4.6 mph - 0.17 in Rain Light Rain
11:35 AM 59.0 °F 57.2 °F 94% 30.07 in 4.0 mi NE 4.6 mph - 0.18 in Rain Light Rain
11:46 AM 59.0 °F 57.2 °F 94% 30.07 in 7.0 mi Variable 3.5 mph - 0.18 in   Overcast
11:54 AM 59.0 °F 57.9 °F 96% 30.03 in 7.0 mi NE 3.5 mph - 0.18 in   Overcast
12:02 PM 60.8 °F 57.2 °F 88% 30.06 in 8.0 mi Calm Calm - N/A   Overcast
12:22 PM 62.6 °F 59.0 °F 88% 30.06 in 9.0 mi ENE 4.6 mph - N/A   Overcast
12:36 PM 62.6 °F 57.2 °F 82% 30.06 in 9.0 mi North 3.5 mph - N/A   Overcast
12:54 PM 62.1 °F 57.9 °F 86% 30.02 in 10.0 mi Calm Calm - N/A   Overcast
1:03 PM 62.6 °F 57.2 °F 82% 30.05 in 10.0 mi Calm Calm - N/A   Overcast
1:54 PM 62.1 °F 57.9 °F 86% 30.00 in 10.0 mi Calm Calm - N/A   Overcast
2:09 PM 62.6 °F 57.2 °F 82% 30.04 in 10.0 mi Calm Calm - N/A   Overcast
2:29 PM 62.6 °F 59.0 °F 88% 30.04 in 10.0 mi Calm Calm - N/A   Overcast
2:54 PM 62.1 °F 57.9 °F 86% 30.00 in 10.0 mi ENE 3.5 mph - N/A   Overcast
3:54 PM 64.0 °F 57.9 °F 80% 29.99 in 10.0 mi NNE 3.5 mph - N/A   Overcast
4:54 PM 63.0 °F 57.9 °F 84% 29.99 in 10.0 mi NNE 3.5 mph - N/A   Overcast
5:54 PM 63.0 °F 57.9 °F 84% 30.01 in 10.0 mi North 3.5 mph - N/A   Overcast
6:10 PM 62.6 °F 57.2 °F 82% 30.05 in 10.0 mi North 3.5 mph - N/A   Overcast
6:54 PM 62.1 °F 57.9 °F 86% 30.01 in 10.0 mi Calm Calm - N/A   Overcast
7:03 PM 62.6 °F 57.2 °F 82% 30.05 in 10.0 mi Calm Calm - N/A   Overcast
7:24 PM 60.8 °F 57.2 °F 88% 30.05 in 10.0 mi Calm Calm - N/A   Mostly Cloudy
7:54 PM 60.1 °F 57.0 °F 90% 30.01 in 9.0 mi North 3.5 mph - N/A   Mostly Cloudy
8:52 PM 57.2 °F 57.2 °F 100% 30.05 in 6.0 mi Calm Calm - N/A   Overcast
8:54 PM 57.9 °F 57.0 °F 97% 30.02 in 7.0 mi Calm Calm - N/A   Overcast
9:41 PM 59.0 °F 57.2 °F 94% 30.06 in 7.0 mi Calm Calm - N/A   Overcast
9:54 PM 59.0 °F 57.9 °F 96% 30.02 in 6.0 mi Calm Calm - N/A   Overcast
10:08 PM 59.0 °F 57.2 °F 94% 30.06 in 7.0 mi Calm Calm - N/A   Overcast
10:35 PM 59.0 °F 57.2 °F 94% 30.07 in 7.0 mi Calm Calm - N/A   Mostly Cloudy
10:54 PM 59.0 °F 57.0 °F 93% 30.02 in 7.0 mi Calm Calm - N/A   Overcast
11:19 PM 59.0 °F 57.2 °F 94% 30.06 in 6.0 mi Calm Calm - 0.00 in   Overcast
11:54 PM 59.0 °F 57.9 °F 96% 30.02 in 5.0 mi Calm Calm - 0.00 in   Overcast